Pope Field Airport, NC

6:19 PM EDT on March 23, 2017 (GMT -0400)
Pope Field Airport

Weather History for KPOB - March, 2012

Change the Weather History Date:

Tuesday, March 13, 2012

  Actual Average Record
Temperature  
Mean Temperature 67 °F -  
Max Temperature 76 °F 64 °F 85 °F (1982)
Min Temperature 58 °F 41 °F 23 °F (1998)
Cooling Degree Days 2    
Growing Degree Days 17 (Base 50)    
Moisture  
Dew Point 56 °F    
Average Humidity 74    
Maximum Humidity 88    
Minimum Humidity 56    
Precipitation  
Precipitation 0.00 in - - ()
Sea Level Pressure  
Sea Level Pressure 30.23 in    
Wind  
Wind Speed 9 mph (SW)    
Max Wind Speed 15 mph    
Max Gust Speed -    
Visibility 10 miles    
Events Rain    
Averages and records for this station are not official NWS values.
T = Trace of Precipitation, MM = Missing Value Source: NWS Daily Summary

Daily Weather History Graph

Daily Weather History Graph

Search for Another Location

Airport or City:

Trip Planner

Search our weather history database for the weather conditions in past years. The results will help you decide how hot, cold, wet, or windy it might be!

Date:

Astronomy

Mar. 13, 2012 Rise Set
Actual Time 7:28 AM EDT 7:22 PM EDT
Civil Twilight 7:03 AM EDT 7:47 PM EDT
Nautical Twilight 6:34 AM EDT 8:17 PM EDT
Astronomical Twilight 6:04 AM EDT 8:46 PM EDT
Moon 12:38 AM EDT (3/13) 10:54 AM EDT (3/13)
Length of Visible Light 12h 44m
Length of Day
11h 53m
Waning Gibbous, 66% of the Moon is Illuminated
Mar 13
Waning Gibbous
Mar 14
Last Quarter
Mar 22
New
Mar 30
First Quarter
Apr 6
Full

Hourly Weather History & Observations

Time (EDT) Temp. Dew Point Humidity Pressure Visibility Wind Dir Wind Speed Gust Speed Precip Events Conditions
12:55 AM 60.6 °F 50.5 °F 69% 30.27 in 10.0 mi SW 9.2 mph - N/A   Partly Cloudy
1:55 AM 59.9 °F 50.9 °F 72% 30.26 in 10.0 mi SSW 6.9 mph - N/A   Overcast
2:55 AM 59.7 °F 51.3 °F 74% 30.26 in 10.0 mi SW 8.1 mph - N/A   Overcast
3:19 AM 60.8 °F 51.8 °F 72% 30.25 in 10.0 mi SW 8.1 mph - N/A Rain Light Rain
3:30 AM 59.0 °F 51.8 °F 77% 30.25 in 10.0 mi SW 8.1 mph - N/A   Overcast
3:55 AM 59.2 °F 51.8 °F 77% 30.25 in 10.0 mi WSW 8.1 mph - 0.00 in   Overcast
4:55 AM 60.1 °F 52.2 °F 75% 30.25 in 10.0 mi SW 9.2 mph - N/A   Overcast
5:55 AM 59.7 °F 52.5 °F 77% 30.25 in 10.0 mi SW 6.9 mph - N/A   Overcast
6:55 AM 59.2 °F 52.7 °F 79% 30.26 in 10.0 mi WSW 6.9 mph - N/A   Overcast
7:45 AM 59.0 °F 53.6 °F 82% 30.26 in 10.0 mi SW 6.9 mph - N/A   Light Drizzle
7:55 AM 58.8 °F 53.6 °F 83% 30.26 in 10.0 mi SW 5.8 mph - 0.00 in Rain Light Rain
8:06 AM 59.0 °F 53.6 °F 82% 30.27 in 10.0 mi SW 5.8 mph - N/A   Overcast
8:29 AM 59.0 °F 53.6 °F 82% 30.27 in 10.0 mi WSW 5.8 mph - N/A   Light Drizzle
8:35 AM 59.0 °F 53.6 °F 82% 30.27 in 10.0 mi SW 6.9 mph - N/A   Light Drizzle
8:46 AM 59.0 °F 55.4 °F 88% 30.27 in 10.0 mi SW 6.9 mph - N/A   Overcast
8:55 AM 59.0 °F 54.7 °F 86% 30.27 in 10.0 mi SW 6.9 mph - 0.00 in   Mostly Cloudy
9:08 AM 59.0 °F 55.4 °F 88% 30.27 in 10.0 mi SW 10.4 mph - N/A Rain Light Rain
9:20 AM 60.8 °F 55.4 °F 82% 30.27 in 10.0 mi SW 10.4 mph - N/A   Mostly Cloudy
9:37 AM 62.6 °F 55.4 °F 77% 30.26 in 10.0 mi SW 13.8 mph - N/A Rain Light Rain
9:55 AM 64.8 °F 56.5 °F 74% 30.26 in 10.0 mi SW 12.7 mph - 0.00 in   Light Drizzle
10:08 AM 64.4 °F 55.4 °F 73% 30.26 in 10.0 mi WSW 15.0 mph - N/A   Mostly Cloudy
10:30 AM 64.4 °F 55.4 °F 73% 30.26 in 10.0 mi WSW 12.7 mph - N/A   Light Drizzle
10:44 AM 64.4 °F 55.4 °F 73% 30.26 in 10.0 mi WSW 9.2 mph - N/A   Mostly Cloudy
10:55 AM 64.4 °F 56.1 °F 74% 30.26 in 10.0 mi WSW 9.2 mph - 0.00 in   Mostly Cloudy
11:12 AM 64.4 °F 57.2 °F 77% 30.26 in 10.0 mi West 10.4 mph - N/A   Light Drizzle
11:21 AM 66.2 °F 57.2 °F 73% 30.26 in 10.0 mi WSW 12.7 mph - N/A   Mostly Cloudy
11:34 AM 66.2 °F 57.2 °F 73% 30.25 in 10.0 mi WSW 12.7 mph - N/A   Light Drizzle
11:44 AM 66.2 °F 57.2 °F 73% 30.25 in 10.0 mi WSW 12.7 mph - N/A   Mostly Cloudy
11:55 AM 67.3 °F 57.7 °F 71% 30.25 in 10.0 mi WSW 10.4 mph - 0.00 in   Mostly Cloudy
12:55 PM 71.2 °F 58.8 °F 65% 30.23 in 10.0 mi SW 9.2 mph - N/A   Partly Cloudy
1:55 PM 74.7 °F 59.2 °F 58% 30.20 in 10.0 mi SSW 9.2 mph - N/A   Partly Cloudy
2:55 PM 74.3 °F 59.4 °F 60% 30.17 in 10.0 mi SW 9.2 mph - N/A   Scattered Clouds
3:55 PM 76.6 °F 59.9 °F 56% 30.15 in 10.0 mi SW 12.7 mph - N/A   Mostly Cloudy
4:55 PM 75.0 °F 60.4 °F 60% 30.14 in 10.0 mi SW 11.5 mph - N/A   Partly Cloudy
5:55 PM 74.3 °F 60.1 °F 61% 30.13 in 10.0 mi SW 10.4 mph - N/A   Clear
6:55 PM 73.0 °F 60.3 °F 64% 30.14 in 10.0 mi SW 10.4 mph - N/A   Clear
7:55 PM 70.2 °F 60.1 °F 70% 30.15 in 10.0 mi SW 8.1 mph - N/A   Clear
8:55 PM 68.9 °F 59.7 °F 72% 30.16 in 10.0 mi SSW 8.1 mph - N/A   Clear
9:55 PM 67.5 °F 59.5 °F 76% 30.17 in 10.0 mi SW 8.1 mph - N/A   Clear
10:55 PM 66.0 °F 59.4 °F 79% 30.18 in 10.0 mi SW 8.1 mph - N/A   Clear
11:55 PM 63.9 °F 59.0 °F 84% 30.19 in 10.0 mi SW 5.8 mph - N/A   Clear